Pinedale, WY

9:10 AM MST on February 20, 2017 (GMT -0700)
Wenz

Weather History for KPNA - April, 2014

Change the Weather History Date:

Friday, April 18, 2014

  Actual Average (KBPI) Record (KBPI)
Temperature  
Mean Temperature 42 °F -  
Max Temperature 55 °F 49 °F 73 °F (1994)
Min Temperature 28 °F 21 °F 2 °F (2013)
Degree Days  
Heating Degree Days 24    
Moisture  
Dew Point 29 °F    
Average Humidity 70    
Maximum Humidity 100    
Minimum Humidity 35    
Precipitation  
Precipitation 0.00 in - - ()
Sea Level Pressure  
Sea Level Pressure 29.98 in    
Wind  
Wind Speed 5 mph (WNW)    
Max Wind Speed 29 mph    
Max Gust Speed 38 mph    
Visibility 10 miles    
Events      
Averages and records for this station are not official NWS values.
T = Trace of Precipitation, MM = Missing Value Source: NWS Daily Summary

Daily Weather History Graph

Daily Weather History Graph

Search for Another Location

Airport or City:

Trip Planner

Search our weather history database for the weather conditions in past years. The results will help you decide how hot, cold, wet, or windy it might be!

Date:

Astronomy

Apr. 18, 2014 Rise Set
Actual Time 6:32 AM MDT 8:05 PM MDT
Civil Twilight 6:03 AM MDT 8:34 PM MDT
Nautical Twilight 5:27 AM MDT 9:10 PM MDT
Astronomical Twilight 4:49 AM MDT 9:49 PM MDT
Moon 11:56 PM MDT (4/18) 8:54 AM MDT (4/18)
Length of Visible Light 14h 31m
Length of Day
13h 32m
Waning Gibbous, 86% of the Moon is Illuminated
Apr 18
Waning Gibbous
Apr 22
Last Quarter
Apr 29
New
May 6
First Quarter
May 14
Full

Hourly Weather History & Observations

Time (MDT) Temp. Windchill Dew Point Humidity Pressure Visibility Wind Dir Wind Speed Gust Speed Precip Events Conditions
12:15 AM 30.2 °F - 28.4 °F 93% 30.01 in 10.0 mi Calm Calm - N/A   Clear
12:35 AM 32.0 °F - 26.6 °F 80% 30.00 in 10.0 mi Calm Calm - N/A   Clear
12:55 AM 30.2 °F 25.4 °F 28.4 °F 93% 30.00 in 10.0 mi West 4.6 mph - N/A   Clear
1:15 AM 30.2 °F - 26.6 °F 86% 30.01 in 10.0 mi Calm Calm - N/A   Clear
1:35 AM 30.2 °F - 28.4 °F 93% 29.99 in 10.0 mi Calm Calm - N/A   Mostly Cloudy
1:55 AM 30.2 °F - 28.4 °F 93% 29.99 in 10.0 mi Calm Calm - N/A   Mostly Cloudy
2:15 AM 32.0 °F - 28.4 °F 87% 29.99 in 10.0 mi Calm Calm - N/A   Overcast
2:35 AM 32.0 °F - 30.2 °F 93% 29.99 in 10.0 mi Calm Calm - N/A   Overcast
2:55 AM 32.0 °F - 30.2 °F 93% 29.99 in 10.0 mi Calm Calm - N/A   Overcast
3:15 AM 32.0 °F - 32.0 °F 100% 29.97 in 10.0 mi Calm Calm - N/A   Overcast
3:35 AM 33.8 °F 30.8 °F 32.0 °F 93% 29.98 in 10.0 mi East 3.5 mph - N/A   Overcast
3:55 AM 33.8 °F 29.6 °F 30.2 °F 87% 29.97 in 10.0 mi ESE 4.6 mph - N/A   Overcast
4:15 AM 33.8 °F 29.6 °F 30.2 °F 87% 29.96 in 10.0 mi SE 4.6 mph - N/A   Mostly Cloudy
4:35 AM 33.8 °F 29.6 °F 28.4 °F 81% 29.95 in 10.0 mi ESE 4.6 mph - N/A   Scattered Clouds
4:55 AM 33.8 °F - 28.4 °F 81% 29.95 in 10.0 mi Calm Calm - N/A   Scattered Clouds
5:15 AM 32.0 °F - 30.2 °F 93% 29.95 in 10.0 mi Calm Calm - N/A   Scattered Clouds
5:35 AM 32.0 °F - 30.2 °F 93% 29.95 in 10.0 mi Calm Calm - N/A   Scattered Clouds
5:55 AM 32.0 °F - 30.2 °F 93% 29.93 in 10.0 mi Calm Calm - N/A   Clear
6:15 AM 32.0 °F 27.5 °F 30.2 °F 93% 29.93 in 10.0 mi NW 4.6 mph - N/A   Clear
6:35 AM 32.0 °F - 30.2 °F 93% 29.93 in 10.0 mi Calm Calm - N/A   Clear
6:55 AM 32.0 °F 27.5 °F 30.2 °F 93% 29.93 in 10.0 mi WNW 4.6 mph - N/A   Clear
7:15 AM 32.0 °F 28.7 °F 30.2 °F 93% 29.94 in 10.0 mi NW 3.5 mph - N/A   Clear
7:35 AM 32.0 °F - 30.2 °F 93% 29.95 in 10.0 mi Calm Calm - N/A   Clear
7:55 AM 32.0 °F - 32.0 °F 100% 29.95 in 10.0 mi Calm Calm - N/A   Clear
8:15 AM 32.0 °F - 32.0 °F 100% 29.95 in 10.0 mi Calm Calm - N/A   Clear
8:35 AM 35.6 °F - 30.2 °F 81% 29.94 in 10.0 mi Calm Calm - N/A   Clear
8:55 AM 39.2 °F - 30.2 °F 70% 29.95 in 10.0 mi Calm Calm - N/A   Clear
9:15 AM 41.0 °F 37.1 °F 32.0 °F 70% 29.94 in 10.0 mi East 5.8 mph - N/A   Clear
9:35 AM 44.6 °F 39.7 °F 30.2 °F 57% 29.93 in 10.0 mi SE 9.2 mph - N/A   Clear
10:15 AM 48.2 °F - 28.4 °F 46% 29.92 in 10.0 mi SSE 10.4 mph - N/A   Clear
10:35 AM 48.2 °F - 28.4 °F 46% 29.93 in 10.0 mi SSE 10.4 mph - N/A   Clear
10:55 AM 50.0 °F - 28.4 °F 43% 29.92 in 10.0 mi SSE 11.5 mph - N/A   Clear
11:15 AM 51.8 °F - 26.6 °F 38% 29.92 in 10.0 mi South 12.7 mph - N/A   Clear
11:35 AM 53.6 °F - 26.6 °F 35% 29.92 in 10.0 mi South 17.3 mph 23.0 mph N/A   Scattered Clouds
11:55 AM 53.6 °F - 28.4 °F 38% 29.92 in 10.0 mi SSW 13.8 mph - N/A   Scattered Clouds
12:15 PM 55.4 °F - 28.4 °F 36% 29.92 in 10.0 mi SW 17.3 mph - N/A   Mostly Cloudy
12:35 PM 55.4 °F - 28.4 °F 36% 29.91 in 10.0 mi SW 21.9 mph 33.4 mph N/A   Scattered Clouds
12:55 PM 55.4 °F - 28.4 °F 36% 29.92 in 10.0 mi WSW 28.8 mph 38.0 mph N/A   Scattered Clouds
1:15 PM 50.0 °F - 32.0 °F 50% 29.95 in 10.0 mi NW 28.8 mph 36.8 mph N/A   Mostly Cloudy
1:35 PM 44.6 °F 35.9 °F 33.8 °F 66% 29.98 in 10.0 mi WNW 23.0 mph 31.1 mph N/A   Overcast
1:55 PM 42.8 °F 35.1 °F 33.8 °F 70% 29.99 in 10.0 mi West 16.1 mph - N/A   Overcast
2:15 PM 44.6 °F 37.8 °F 35.6 °F 71% 30.00 in 10.0 mi West 15.0 mph - N/A   Overcast
2:35 PM 46.4 °F 39.0 °F 33.8 °F 62% 29.99 in 10.0 mi WSW 19.6 mph 26.5 mph N/A   Overcast
2:55 PM 46.4 °F 38.5 °F 32.0 °F 57% 29.98 in 10.0 mi WSW 21.9 mph 31.1 mph N/A   Overcast
3:15 PM 46.4 °F 39.5 °F 32.0 °F 57% 29.98 in 10.0 mi West 17.3 mph 28.8 mph N/A   Overcast
3:35 PM 44.6 °F 39.7 °F 33.8 °F 66% 29.97 in 10.0 mi North 9.2 mph - N/A   Mostly Cloudy
3:55 PM 46.4 °F 42.4 °F 33.8 °F 62% 29.98 in 10.0 mi NNW 8.1 mph - N/A   Mostly Cloudy
4:15 PM 46.4 °F 42.4 °F 33.8 °F 62% 29.98 in 10.0 mi North 8.1 mph - N/A   Mostly Cloudy
4:35 PM 46.4 °F 41.9 °F 33.8 °F 62% 29.99 in 10.0 mi NNW 9.2 mph - N/A   Overcast
4:55 PM 46.4 °F 41.5 °F 33.8 °F 62% 29.99 in 10.0 mi NNW 10.4 mph - N/A   Overcast
5:15 PM 46.4 °F 43.5 °F 32.0 °F 57% 29.99 in 10.0 mi West 5.8 mph - N/A   Mostly Cloudy
5:35 PM 50.0 °F - 32.0 °F 50% 30.00 in 10.0 mi NW 10.4 mph 16.1 mph N/A   Clear
5:55 PM 46.4 °F 41.1 °F 32.0 °F 57% 30.00 in 10.0 mi North 11.5 mph - N/A   Mostly Cloudy
6:15 PM 46.4 °F 41.9 °F 28.4 °F 50% 30.00 in 10.0 mi WNW 9.2 mph - N/A   Scattered Clouds
6:35 PM 48.2 °F - 26.6 °F 43% 30.01 in 10.0 mi West 8.1 mph - N/A   Clear
6:55 PM 46.4 °F 41.5 °F 28.4 °F 50% 30.01 in 10.0 mi North 10.4 mph 18.4 mph N/A   Clear
7:15 PM 46.4 °F 41.9 °F 28.4 °F 50% 30.01 in 10.0 mi NW 9.2 mph - N/A   Clear
7:35 PM 44.6 °F 40.2 °F 30.2 °F 57% 30.01 in 10.0 mi North 8.1 mph - N/A   Clear
7:55 PM 42.8 °F 37.0 °F 28.4 °F 57% 30.03 in 10.0 mi North 10.4 mph - N/A   Clear
8:15 PM 39.2 °F 35.0 °F 26.6 °F 61% 30.03 in 10.0 mi NW 5.8 mph - N/A   Clear
8:35 PM 35.6 °F 32.8 °F 26.6 °F 70% 30.03 in 10.0 mi West 3.5 mph - N/A   Clear
8:55 PM 35.6 °F - 23.0 °F 60% 30.05 in 10.0 mi Calm Calm - N/A   Clear
9:15 PM 35.6 °F 31.7 °F 23.0 °F 60% 30.05 in 10.0 mi West 4.6 mph - N/A   Clear
9:35 PM 32.0 °F - 24.8 °F 75% 30.05 in 10.0 mi Calm Calm - N/A   Clear
9:55 PM 33.8 °F - 23.0 °F 65% 30.06 in 10.0 mi Calm Calm - N/A   Clear
10:15 PM 30.2 °F 23.4 °F 23.0 °F 75% 30.06 in 10.0 mi West 6.9 mph - N/A   Clear
10:35 PM 32.0 °F - 23.0 °F 69% 30.06 in 10.0 mi Calm Calm - N/A   Clear
10:55 PM 28.4 °F 22.2 °F 23.0 °F 80% 30.06 in 10.0 mi West 5.8 mph - N/A   Clear
11:15 PM 28.4 °F 22.2 °F 23.0 °F 80% 30.06 in 10.0 mi WNW 5.8 mph - N/A   Clear
11:35 PM 28.4 °F 24.6 °F 21.2 °F 74% 30.06 in 10.0 mi WNW 3.5 mph - N/A   Clear
11:55 PM 28.4 °F 23.3 °F 23.0 °F 80% 30.06 in 10.0 mi NW 4.6 mph - N/A   Clear